This demonstration page uses our WeatherBlox Daily Observations layout. Learn more.

Left ArrowRight Arrow

Hourly Observations for April 10, 2018

Temp ( °F °C ) Dew Point ( °F °C ) Humidity (%) Winds ( mph kmh ) Pressure ( in mb ) Visibility ( mi km ) Precip ( " mm )
12:53 am 00:53 Clear 27 -2.8 22 -5.6 81 81 SSW 3 6 30.37 1028 10 16 0.00 0.00
1:53 am 01:53 Clear 28 -2.2 22 -5.6 78 78 SSW 7 11 30.37 1028 10 16 0.00 0.00
2:53 am 02:53 Clear 27 -2.8 22 -5.6 81 81 SSW 6 9 30.36 1028 10 16 0.00 0.00
3:53 am 03:53 Clear 26 -3.3 21 -6.1 81 81 SW 3 6 30.34 1028 10 16 0.00 0.00
4:53 am 04:53 Clear 27 -2.8 22 -5.6 81 81 SSW 7 11 30.33 1027 10 16 0.00 0.00
5:53 am 05:53 Mostly Cloudy 28 -2.2 22 -5.6 78 78 SSW 9 15 30.32 1027 10 16 0.00 0.00
6:53 am 06:53 Cloudy 28 -2.2 23 -5 81 81 SSW 7 11 30.31 1026 10 16 0.00 0.00
7:53 am 07:53 Cloudy 30 -1.1 25 -3.9 82 82 SSW 7 11 30.30 1026 10 16 0.00 0.00
8:53 am 08:53 Mostly Cloudy with Light Rain 34 1.1 28 -2.2 79 79 S 10 17 30.27 1025 10 16 0.00 0.03
9:53 am 09:53 Sunny 42 5.6 33 0.6 71 71 SSW 14 22 30.23 1024 10 16 0.00 0.03
10:53 am 10:53 Partly Cloudy 46 7.8 35 1.7 66 66 S 8 13 30.21 1023 10 16 0.00 0.00
11:53 am 11:53 Mostly Sunny 53 11.7 37 2.8 55 55 WSW 13 20 30.18 1022 10 16 0.00 0.00
12:53 pm 12:53 Sunny 57 13.9 37 2.8 47 47 SW 8 13 30.15 1021 10 16 0.00 0.00
1:53 pm 13:53 Sunny 60 15.6 36 2.2 41 41 W 5 7 30.11 1020 10 16 0.00 0.00
2:53 pm 14:53 Sunny 64 17.8 35 1.7 34 34 VRB 6 9 30.08 1019 10 16 0.00 0.00
3:53 pm 15:53 Sunny 67 19.4 31 -0.6 26 26 VRB 6 9 30.05 1018 10 16 0.00 0.00
4:53 pm 16:53 Sunny 67 19.4 31 -0.6 26 26 W 12 19 30.02 1017 10 16 0.00 0.00
5:53 pm 17:53 Sunny 68 20 29 -1.7 23 23 Calm 30.00 1016 10 16 0.00 0.00
6:53 pm 18:53 Sunny 68 20 26 -3.3 21 21 NW 8 13 30.00 1016 10 16 0.00 0.00
7:53 pm 19:53 Sunny 60 15.6 29 -1.7 31 31 ENE 3 6 30.00 1016 10 16 0.00 0.00
8:53 pm 20:53 Clear 57 13.9 34 1.1 42 42 ESE 8 13 29.99 1016 10 16 0.00 0.00
9:53 pm 21:53 Clear 55 12.8 33 0.6 44 44 SE 7 11 29.99 1016 10 16 0.00 0.00

Powered by AerisWeather